Regional Weather Roundup
Issued by NWS

Home | Current Version | Previous Version | Graphics & Text | Print | Product List | Glossary On
Versions: 1 2 3 4 5 6 7 8 9 10 11 12 13 14 15 16 17 18 19 20 21 22 23 24 25 26 27 28 29 30 31 32 33 34 35 36 37 38 39 40 41 42 43 44 45 46 47 48 49 50
513
ASUS43 KMPX 280201
RWRMN
WEATHER ROUNDUP FOR MINNESOTA
NATIONAL WEATHER SERVICE TWIN CITIES/CHANHASSEN MN
900 PM CDT SAT MAY 27 2017


NOTE: "FAIR" INDICATES FEW OR NO CLOUDS BELOW 12,000 FEET WITH NO
SIGNIFICANT WEATHER AND/OR OBSTRUCTIONS TO VISIBILITY. N/A MEANS
CURRENT SKY AND/OR WEATHER CONDITIONS ARE NOT AVAILABLE.

MNZ060>063-068>070-280300-
   Twin Cities Metro

CITY           SKY/WX    TMP DP  RH WIND       PRES   REMARKS
TWIN CITIES    CLOUDY    68  47  46 S5        29.84F
ST PAUL        PTCLDY    62  53  72 SE6       29.84F
CRYSTAL        CLOUDY    65  46  50 S6        29.82F
BLAINE         MOCLDY    66  48  52 SW5       29.84F
LAKEVILLE      CLOUDY    61  52  72 CALM      29.85F
EDEN PRAIRIE   CLOUDY    66  48  52 SW5       29.83F
SOUTH ST PAUL  CLOUDY    64  48  55 CALM      29.84F
LAKE ELMO      FAIR      63  52  67 S6        29.86S
$$
MNZ001>005-007-008-013>017-022>024-027-028-280300-
   Northwest Minnesota

CITY           SKY/WX    TMP DP  RH WIND       PRES   REMARKS
BEMIDJI        CLOUDY    57  46  66 E3        29.73F
HALLOCK        MOCLDY    61  50  67 S9        29.69R
ROSEAU         PTCLDY    61  46  59 S7        29.69S
WARROAD        CLOUDY    63  46  55 SW5       29.69S
CROOKSTON      CLOUDY    63  52  67 E3        29.69F
FOSSTON        MOCLDY    63  45  51 SE6       29.74S
DETROIT LAKES  LGT RAIN  63  43  48 W3        29.76S
MOORHEAD       CLEAR     70  36  28 SW9       29.72S
PARK RAPIDS    MOCLDY    64  40  41 S9        29.75F
MAHNOMEN       CLOUDY    62  46  55 E5        29.72S
$$
MNZ006-009>011-018-025>026-280300-
   North Central Minnesota

CITY           SKY/WX    TMP DP  RH WIND       PRES   REMARKS
BAUDETTE       MOCLDY    62  43  49 W3        29.70S
FLAG ISLAND    PTCLDY    61  46  59 CALM      29.66F HAZE
INTL FALLS     PTCLDY    62  41  46 SW5       29.71F
WASKISH        LGT RAIN  63  46  55 S3        29.72R
BIG FORK       PTCLDY    61  46  59 CALM      29.76S
LONGVILLE      CLEAR     55  54  94 CALM      29.76S
GRAND RAPIDS   PTCLDY    60  44  55 SE5       29.78F
CRANE LAKE     LGT RAIN  63  43  48 CALM      29.76R
ORR            LGT RAIN  63  39  42 SW6G23    29.73R
COOK           PTCLDY    66  39  37 S5        29.75S
WALKER         CLOUDY    61  46  57 W5        29.76R
$$
MNZ012-019>021-037-280300-
   Northeast Minnesota

CITY           SKY/WX    TMP DP  RH WIND       PRES   REMARKS
DULUTH         MOCLDY    66  43  43 SW6       29.79S
ELY            PTCLDY    66  36  32 S3        29.75S
HIBBING        PTCLDY    64  41  42 S3        29.76S
EVELETH        MOCLDY    64  32  30 SW6       29.78S
DULUTH HARBOR  CLOUDY    70  48  46 SW8       29.78F
TWO HARBORS    CLOUDY    68  48  49 W5        29.77R
SILVER BAY     CLOUDY    63  45  51 CALM      29.76R
GRAND MARAIS     N/A     48  41  76 CALM      29.77S
G MARAIS ARPRT CLOUDY    57  36  44 CALM      29.81R
$$
MNZ029>031-032-039>041-046>048-054>057-064-280300-
   West Central Minnesota

CITY           SKY/WX    TMP DP  RH WIND       PRES   REMARKS
FERGUS FALLS   PTCLDY    66  45  45 SW13      29.74F
WHEATON        PTCLDY    68  39  34 SW10      29.80S
MORRIS         PTCLDY    64  48  55 SW9       29.80S
ALEXANDRIA     PTCLDY    64  42  44 S9        29.82S
ELBOW LAKE     MOCLDY    63  46  54 W8        29.78F
WADENA         PTCLDY    63  43  48 S8        29.77S
GLENWOOD       PTCLDY    64  45  48 S10       29.83S
APPLETON       MOCLDY    68  41  37 SW9       29.82S
BENSON         MOCLDY    66  43  42 SW8       29.83F
ORTONVILLE     PTCLDY    66  45  45 SW6       29.81F
MADISON        MOCLDY    68  46  45 SW9       29.84S
WILLMAR        FAIR      68  46  45 SW7       29.86R
$$
MNZ033>034-036-042>043-049>051-058-059-280300-
   Central Minnesota

CITY           SKY/WX    TMP DP  RH WIND       PRES   REMARKS
ST CLOUD       CLOUDY    64  47  53 S5        29.82F
SAUK CENTRE    FAIR      64  44  47 SW7       29.82S
PAYNESVILLE    CLOUDY    65  45  48 S5        29.84S
AITKIN         PTCLDY    63  45  51 S6        29.78S
PINE RIVER     PTCLDY    64  45  48 S5        29.81S
BRAINERD       MOCLDY    65  44  46 S8        29.79F
STAPLES        PTCLDY    61  43  51 S7        29.78S
LONG PRAIRIE   FAIR      63  43  48 S8        29.81S
LITTLE FALLS   CLOUDY    64  43  45 S5        29.81S
LITCHFIELD     CLOUDY    68  46  45 CALM      29.84F
BUFFALO        CLOUDY    66  44  44 S3        29.84F
MAPLE LAKE     CLOUDY    65  52  62 CALM      29.85S
HUTCHINSON     CLOUDY    69  45  42 SW5       29.86S
$$
MNZ037-044-045-052-053-280300-
   East Central Minnesota

CITY           SKY/WX    TMP DP  RH WIND       PRES   REMARKS
PRINCETON      CLOUDY    66  48  52 S3        29.83S
MORA           CLOUDY    64  43  45 SW3       29.84S
CAMBRIDGE      PTCLDY    68  50  52 S3        29.81F
RUSH CITY      CLOUDY    65  46  49 S3        29.83S
MOOSE LAKE     CLOUDY    61  43  51 SW3       29.79S
HINCKLEY       MOCLDY    63  50  63 CALM      29.82S
CLOQUET        CLOUDY    64  39  39 SW5       29.80S
MCGREGOR       MOCLDY    63  45  51 S6        29.79F
$$
MNZ071>073-080-081-089-090-097-098-280300-
   Southwest Minnesota

CITY           SKY/WX    TMP DP  RH WIND       PRES   REMARKS
MONTEVIDEO     PTCLDY    66  43  42 W7        29.84S
CANBY          PTCLDY    66  46  48 CALM      29.86F
MARSHALL       CLOUDY    65  48  54 W10       29.87F
REDWOOD FALLS  CLOUDY    68  45  43 W8        29.85F
OLIVIA         CLOUDY    68  45  42 W8        29.85S
PIPESTONE      CLOUDY    63  45  51 W6        29.91S
WINDOM         CLOUDY    64  48  55 SW5       29.89F
WORTHINGTON    LGT RAIN  63  51  65 W7        29.91F
JACKSON        CLOUDY    63  48  59 W8        29.91S
TRACY          CLOUDY    65  53  63 SW5       29.88F
SLAYTON        CLOUDY    63  51  64 SW9       29.91S
$$
MNZ065>067-074>077-082>085-091>093-280300-
   South Central Minnesota

CITY           SKY/WX    TMP DP  RH WIND       PRES   REMARKS
MANKATO        PTCLDY    67  46  47 S5        29.87F
NEW ULM        CLOUDY    66  45  45 SW5       29.86F
ST JAMES       CLOUDY    66  50  55 SW5       29.88F
FAIRMONT       CLOUDY    67  46  47 W5        29.88F
GLENCOE        MOCLDY    68  51  54 S5        29.84F
FARIBAULT      PTCLDY    63  46  55 S3        29.87F
OWATONNA       CLEAR     57  48  72 CALM      29.88S
WASECA         PTCLDY    59  48  67 SE3       29.88F
ALBERT LEA     CLEAR     64  50  59 CALM      29.88F
$$
MNZ078>079-086>088-094>096-280300-
   Southeast Minnesota

CITY           SKY/WX    TMP DP  RH WIND       PRES   REMARKS
ROCHESTER      CLOUDY    62  54  74 CALM      29.89F
RED WING       CLEAR     59  48  67 CALM      29.85F
STANTON        CLEAR     63  47  56 S3        29.84F
DODGE CENTER   MOCLDY    63  46  55 CALM      29.88F
WINONA         CLOUDY    59  55  88 CALM      29.88F
AUSTIN         CLOUDY    63  50  63 CALM      29.88F
PRESTON        CLOUDY    58  54  85 NW3       29.89F
$$
ABBREVIATIONS USED IN REMARKS
   TC - TEMPERATURES IN CELSIUS
  WCI - WIND CHILL INDEX
   HX - HEAT INDEX
  VSB - VISIBILITY
$$




USA.gov is the U.S. government's official web portal to all federal, state and local government web resources and services.